Location: Foligno
(42.9600°N, 12.7050°E)
Time: 11:29:03
(UTC+02:00)

ISS - Pass Details

Date: 13 May 2021
Orbit: 417 x 422 km, 51.6° (Epoch: 15 May)

Event Time Altitude Azimuth Distance (km) Brightness Sun altitude
Exits shadow 02:05:02 15° 331° (NNW) 1,214 -1.0 -27.1°
Maximum altitude 02:06:16 18° 359° (N) 1,099 -0.9 -27.1°
Drops below altitude 10° 02:08:42 10° 45° (NE) 1,505 -0.2 -27.0°
Sets 02:11:16 0° 65° (ENE) 2,370 0.6 -26.8°
